K7SKM Weather Reports


Display with metric or nautical units.
time (UTC)temp
F
wind
direction
speed
MPH
gust
MPH
rain 1hr
in
rain 24hr
in
rain mn
in
humidity
%
barometer
mb
20260902043802 63 155 0.0 0.0 0.00 0.00 0.00 73 1015.1
20260902043258 64 160 0.0 0.0 0.00 0.00 0.00 73 1015.1
20260902042757 64 185 0.0 0.0 0.00 0.00 0.00 72 1015.0
20260902042252 64 160 0.0 0.0 0.00 0.00 0.00 72 1015.0
20260902041748 64 158 0.0 0.0 0.00 0.00 0.00 72 1014.9
20260902041247 64 217 0.0 3.0 0.00 0.00 0.00 73 1015.1
20260902040746 64 163 0.0 0.0 0.00 0.00 0.00 73 1015.2
20260902040242 64 178 0.0 0.0 0.00 0.00 0.00 73 1015.2
20260902035740 64 148 0.0 5.0 0.00 0.00 0.00 73 1015.1
20260902035236 64 195 0.0 0.0 0.00 0.00 0.00 73 1015.0
20260902034735 64 203 0.0 3.0 0.00 0.00 0.00 73 1015.1
20260902034230 64 172 0.0 0.0 0.00 0.00 0.00 73 1015.2
20260902033728 64 151 0.0 0.0 0.00 0.00 0.00 73 1015.2
20260902033224 64 210 0.0 0.0 0.00 0.00 0.00 73 1015.0
20260902032722 64 180 0.0 5.0 0.00 0.00 0.00 73 1015.2
20260902032218 64 234 0.0 0.0 0.00 0.00 0.00 73 1015.3
20260902031717 64 166 0.0 0.0 0.00 0.00 0.00 73 1015.2
20260902031213 64 142 0.0 0.0 0.00 0.00 0.00 74 1015.1
20260902030708 64 191 0.0 0.0 0.00 0.00 0.00 73 1015.0
20260902030207 64 137 0.0 3.0 0.00 0.00 0.00 73 1015.1
20260902025702 64 153 0.0 0.0 0.00 0.00 0.00 73 1014.9
20260902025157 64 211 0.0 3.0 0.00 0.00 0.00 72 1014.8
20260902024652 64 212 0.0 0.0 0.00 0.00 0.00 71 1014.9
20260902024147 64 169 0.0 5.0 0.00 0.00 0.00 71 1014.7
20260902023643 65 225 0.0 7.0 0.00 0.00 0.00 70 1014.7
20260902023138 65 269 1.0 7.0 0.00 0.00 0.00 68 1014.7
20260902022637 66 187 0.0 0.0 0.00 0.00 0.00 67 1014.8
20260902022133 66 199 0.0 5.0 0.00 0.00 0.00 66 1014.7
20260902021628 67 207 0.0 3.0 0.00 0.00 0.00 64 1014.7
20260902021123 67 181 0.0 3.0 0.00 0.00 0.00 64 1014.6
20260902020619 67 112 4.0 7.0 0.00 0.00 0.00 63 1014.7
20260902020114 67 192 0.0 3.0 0.00 0.00 0.00 64 1014.6
20260902015610 67 222 0.0 3.0 0.00 0.00 0.00 64 1014.7
20260902015106 67 139 4.0 7.0 0.00 0.00 0.00 63 1014.6
20260902014602 67 216 0.0 0.0 0.00 0.00 0.00 63 1014.7
20260902014057 67 232 0.0 3.0 0.00 0.00 0.00 64 1014.7
20260902013556 67 176 0.0 3.0 0.00 0.00 0.00 64 1014.8
20260902013052 67 184 0.0 0.0 0.00 0.00 0.00 64 1014.5
20260902012547 67 104 0.0 5.0 0.00 0.00 0.00 64 1014.6
20260902012043 67 160 0.0 0.0 0.00 0.00 0.00 65 1014.6
20260902011538 67 186 0.0 0.0 0.00 0.00 0.00 65 1014.6
20260902011037 67 208 0.0 0.0 0.00 0.00 0.00 66 1014.7
20260902010537 67 211 1.0 7.0 0.00 0.00 0.00 65 1014.6
20260902010033 67 208 0.0 0.0 0.00 0.00 0.00 65 1014.6
20260902005531 67 219 0.0 3.0 0.00 0.00 0.00 65 1014.6
20260902005027 67 275 3.0 5.0 0.00 0.00 0.00 65 1014.5
20260902004526 68 221 0.0 0.0 0.00 0.00 0.00 64 1014.7
20260902004022 68 208 0.0 0.0 0.00 0.00 0.00 64 1014.7
20260902003517 68 193 0.0 0.0 0.00 0.00 0.00 64 1014.4
20260902003012 67 257 0.0 5.0 0.00 0.00 0.00 64 1014.6
20260902002508 68 221 0.0 0.0 0.00 0.00 0.00 63 1014.7
20260902002002 68 283 3.0 5.0 0.00 0.00 0.00 63 1014.6
20260902001456 68 200 0.0 3.0 0.00 0.00 0.00 64 1014.7
20260902000952 67 180 0.0 5.0 0.00 0.00 0.00 65 1014.8
20260902000447 67 149 0.0 5.0 0.00 0.00 0.00 66 1014.6
20260901235942 67 234 0.0 5.0 0.00 0.00 0.00 66 1014.8
20260901235437 68 211 1.0 5.0 0.00 0.00 0.00 65 1014.6
20260901234932 68 232 0.0 3.0 0.00 0.00 0.00 65 1014.6
20260901234426 68 219 0.0 5.0 0.00 0.00 0.00 64 1014.5
20260901233921 68 149 2.0 3.0 0.00 0.00 0.00 64 1014.6
20260901233416 67 139 1.0 5.0 0.00 0.00 0.00 64 1014.7
20260901232912 68 202 0.0 3.0 0.00 0.00 0.00 65 1014.7
20260901232407 67 150 0.0 3.0 0.00 0.00 0.00 65 1014.8
20260901231902 67 200 0.0 0.0 0.00 0.00 0.00 66 1014.7
20260901231358 67 209 0.0 0.0 0.00 0.00 0.00 66 1014.5
20260901230855 67 224 0.0 0.0 0.00 0.00 0.00 66 1014.7
20260901230354 67 259 2.0 5.0 0.00 0.00 0.00 66 1014.6
20260901225850 67 207 0.0 0.0 0.00 0.00 0.00 67 1014.9
20260901225349 66 214 0.0 0.0 0.00 0.00 0.00 67 1014.7
20260901224844 66 223 0.0 3.0 0.00 0.00 0.00 68 1014.9
20260901224340 66 277 1.0 5.0 0.00 0.00 0.00 68 1014.7
20260901223836 66 275 3.0 10.0 0.00 0.00 0.00 69 1014.9
20260901223332 66 291 3.0 5.0 0.00 0.00 0.00 68 1014.9
20260901222827 66 217 0.0 0.0 0.00 0.00 0.00 68 1014.9
20260901222324 66 259 0.0 7.0 0.00 0.00 0.00 68 1014.7
20260901221819 66 285 3.0 5.0 0.00 0.00 0.00 67 1014.6
20260901221314 66 215 0.0 0.0 0.00 0.00 0.00 68 1014.6
20260901220808 66 273 0.0 3.0 0.00 0.00 0.00 68 1014.8
20260901220302 66 289 2.0 5.0 0.00 0.00 0.00 68 1014.8
20260901215801 66 294 4.0 7.0 0.00 0.00 0.00 68 1014.6
20260901215300 66 273 3.0 7.0 0.00 0.00 0.00 67 1014.7
20260901214759 67 240 0.0 0.0 0.00 0.00 0.00 67 1014.7
20260901214258 66 277 0.0 5.0 0.00 0.00 0.00 67 1014.6
20260901213753 66 252 0.0 7.0 0.00 0.00 0.00 67 1014.6
20260901213252 66 313 3.0 10.0 0.00 0.00 0.00 67 1014.6
20260901212746 67 270 2.0 7.0 0.00 0.00 0.00 66 1014.6
20260901212243 67 290 5.0 7.0 0.00 0.00 0.00 65 1014.8
20260901211737 68 274 0.0 5.0 0.00 0.00 0.00 65 1014.7
20260901211234 68 254 3.0 7.0 0.00 0.00 0.00 64 1014.5
20260901210730 68 226 1.0 3.0 0.00 0.00 0.00 63 1014.7
20260901210225 68 194 2.0 5.0 0.00 0.00 0.00 63 1014.7
20260901205721 68 286 3.0 7.0 0.00 0.00 0.00 62 1014.7
20260901205221 69 252 0.0 0.0 0.00 0.00 0.00 62 1014.7
20260901204716 69 142 3.0 7.0 0.00 0.00 0.00 61 1014.8
20260901204212 69 213 0.0 3.0 0.00 0.00 0.00 61 1014.8
20260901203707 69 214 0.0 0.0 0.00 0.00 0.00 62 1014.9
20260901203201 69 250 0.0 0.0 0.00 0.00 0.00 62 1014.9
20260901202701 68 203 0.0 7.0 0.00 0.00 0.00 62 1015.0
20260901202156 69 307 0.0 0.0 0.00 0.00 0.00 63 1014.9
20260901201652 68 158 0.0 0.0 0.00 0.00 0.00 64 1014.7
20260901201152 68 203 0.0 3.0 0.00 0.00 0.00 64 1014.6
20260901200651 68 207 0.0 0.0 0.00 0.00 0.00 65 1014.8
20260901200146 67 270 0.0 5.0 0.00 0.00 0.00 66 1014.8
20260901195643 67 180 0.0 3.0 0.00 0.00 0.00 67 1014.8
20260901195138 66 171 0.0 5.0 0.00 0.00 0.00 68 1015.1
20260901194634 66 162 2.0 3.0 0.00 0.00 0.00 69 1014.8
20260901194128 66 129 1.0 7.0 0.00 0.00 0.00 69 1014.9
20260901193619 66 150 2.0 5.0 0.00 0.00 0.00 69 1015.1
20260901193118 66 152 0.0 5.0 0.00 0.00 0.00 69 1015.1
20260901192614 66 131 4.0 5.0 0.00 0.00 0.00 69 1015.0
20260901192109 66 161 0.0 0.0 0.00 0.00 0.00 68 1015.1
20260901191605 66 108 1.0 5.0 0.00 0.00 0.00 68 1015.0
20260901191101 66 142 0.0 3.0 0.00 0.00 0.00 68 1015.2
20260901190556 66 230 2.0 5.0 0.00 0.00 0.00 68 1015.3
20260901190055 66 153 0.0 0.0 0.00 0.00 0.00 69 1015.3
20260901185554 65 136 0.0 0.0 0.00 0.00 0.00 70 1015.2
20260901185053 65 195 0.0 3.0 0.00 0.00 0.00 70 1015.3
20260901184549 65 193 0.0 0.0 0.00 0.00 0.00 71 1015.1
20260901184044 65 139 0.0 5.0 0.00 0.00 0.00 71 1015.4
20260901183544 65 154 0.0 0.0 0.00 0.00 0.00 71 1015.2
20260901183040 65 129 2.0 5.0 0.00 0.00 0.00 71 1015.0
20260901182536 65 159 1.0 5.0 0.00 0.00 0.00 71 1015.4
20260901182035 65 145 4.0 7.0 0.00 0.00 0.00 69 1015.2
20260901181534 66 200 0.0 3.0 0.00 0.00 0.00 68 1015.3
20260901181029 65 190 0.0 5.0 0.00 0.00 0.00 69 1015.0
20260901180527 65 135 3.0 7.0 0.00 0.00 0.00 69 1015.1
20260901180022 65 184 0.0 3.0 0.00 0.00 0.00 69 1015.2
20260901175516 65 191 0.0 5.0 0.00 0.00 0.00 68 1015.0
20260901175010 65 197 0.0 5.0 0.00 0.00 0.00 69 1015.0
20260901174507 65 140 0.0 3.0 0.00 0.00 0.00 69 1015.0
20260901174003 65 185 0.0 3.0 0.00 0.00 0.00 69 1014.7
20260901173457 64 140 0.0 5.0 0.00 0.00 0.00 70 1014.9
20260901172953 65 138 0.0 0.0 0.00 0.00 0.00 68 1014.9
20260901172448 66 184 0.0 0.0 0.00 0.00 0.00 67 1014.9
20260901171946 66 196 0.0 0.0 0.00 0.00 0.00 67 1015.1
20260901171445 66 237 0.0 0.0 0.00 0.00 0.00 68 1014.8
20260901170944 67 172 0.0 0.0 0.00 0.00 0.00 68 1014.7
20260901170439 65 211 0.0 0.0 0.00 0.00 0.00 69 1014.8
20260901165938 64 158 1.0 5.0 0.00 0.00 0.00 70 1014.9
20260901165433 64 196 0.0 0.0 0.00 0.00 0.00 71 1015.0
20260901164929 64 193 0.0 0.0 0.00 0.00 0.00 72 1015.0
20260901164424 64 201 0.0 0.0 0.00 0.00 0.00 72 1015.1
20260901163919 64 156 0.0 0.0 0.00 0.00 0.00 71 1015.0
20260901163414 64 164 0.0 0.0 0.00 0.00 0.00 72 1015.2
20260901162908 63 133 0.0 0.0 0.00 0.00 0.00 72 1015.3
20260901162408 63 156 0.0 0.0 0.00 0.00 0.00 74 1015.2
20260901161902 62 160 0.0 0.0 0.00 0.00 0.00 74 1015.3
20260901161401 62 148 0.0 0.0 0.00 0.00 0.00 76 1015.1
20260901160856 61 124 0.0 0.0 0.00 0.00 0.00 76 1015.2
20260901160353 61 137 0.0 0.0 0.00 0.00 0.00 77 1015.3
20260901155852 61 141 0.0 0.0 0.00 0.00 0.00 77 1015.3
20260901155346 60 145 0.0 0.0 0.00 0.00 0.00 78 1015.2
20260901154843 61 151 0.0 0.0 0.00 0.00 0.00 78 1015.3
20260901154342 60 181 0.0 0.0 0.00 0.00 0.00 79 1015.4
20260901153837 59 144 0.0 0.0 0.00 0.00 0.00 80 1015.3
20260901153332 59 153 0.0 0.0 0.00 0.00 0.00 81 1015.2
20260901152830 58 168 0.0 0.0 0.00 0.00 0.00 81 1015.2
20260901152330 58 129 0.0 0.0 0.00 0.00 0.00 82 1015.3
20260901151826 57 127 0.0 0.0 0.00 0.00 0.00 82 1015.4
20260901151320 57 130 0.0 0.0 0.00 0.00 0.00 83 1015.3
20260901150819 57 145 0.0 0.0 0.00 0.00 0.00 83 1015.5
20260901150317 56 112 0.0 0.0 0.00 0.00 0.00 84 1015.4
20260901145810 56 143 0.0 0.0 0.00 0.00 0.00 84 1015.2
20260901145309 56 124 0.0 0.0 0.00 0.00 0.00 85 1015.1
20260901144804 55 148 0.0 0.0 0.00 0.00 0.00 85 1015.4
20260901144301 55 138 0.0 5.0 0.00 0.00 0.00 85 1015.2
20260901143756 55 146 3.0 7.0 0.00 0.00 0.00 86 1015.4
20260901143252 55 139 0.0 0.0 0.00 0.00 0.00 86 1015.1
20260901142749 55 133 0.0 5.0 0.00 0.00 0.00 86 1015.2
20260901142247 55 156 0.0 0.0 0.00 0.00 0.00 87 1015.1
20260901141742 54 141 0.0 0.0 0.00 0.00 0.00 87 1015.2
20260901141237 54 120 0.0 3.0 0.00 0.00 0.00 87 1015.0
20260901140736 54 125 0.0 0.0 0.00 0.00 0.00 87 1014.9
20260901140234 54 153 0.0 0.0 0.00 0.00 0.00 87 1014.9
20260901135730 54 153 0.0 3.0 0.00 0.00 0.00 87 1014.7
20260901135230 54 130 0.0 0.0 0.00 0.00 0.00 88 1014.6
20260901134725 53 164 0.0 0.0 0.00 0.00 0.00 88 1014.7
20260901134220 53 162 0.0 0.0 0.00 0.00 0.00 88 1014.8
20260901133720 53 180 0.0 0.0 0.00 0.00 0.00 87 1014.6
20260901133219 53 184 0.0 0.0 0.00 0.00 0.00 87 1014.6
20260901132717 53 177 0.0 0.0 0.00 0.00 0.00 87 1014.8
20260901132212 54 171 0.0 0.0 0.00 0.00 0.00 87 1014.8
20260901131707 54 166 0.0 0.0 0.00 0.00 0.00 87 1014.9
20260901131206 54 175 0.0 0.0 0.00 0.00 0.00 86 1014.7
20260901130702 54 171 0.0 0.0 0.00 0.00 0.00 86 1014.8
20260901130200 54 156 0.0 0.0 0.00 0.00 0.00 86 1014.8
20260901125658 54 138 0.0 0.0 0.00 0.00 0.00 86 1014.6
20260901125154 54 136 0.0 0.0 0.00 0.00 0.00 86 1014.6
20260901124649 54 150 0.0 0.0 0.00 0.00 0.00 86 1014.4
20260901124143 55 147 0.0 0.0 0.00 0.00 0.00 86 1014.6
20260901123638 55 187 0.0 0.0 0.00 0.00 0.00 86 1014.5
20260901123137 55 175 0.0 0.0 0.00 0.00 0.00 86 1014.4
20260901122636 55 138 0.0 0.0 0.00 0.00 0.00 86 1014.4
20260901122131 55 147 0.0 0.0 0.00 0.00 0.00 86 1014.3
20260901121625 55 142 0.0 0.0 0.00 0.00 0.00 86 1014.4
20260901121120 55 152 0.0 0.0 0.00 0.00 0.00 86 1014.4
20260901120615 55 165 0.0 0.0 0.00 0.00 0.00 86 1014.4
20260901120110 55 151 0.0 0.0 0.00 0.00 0.00 86 1014.3
20260901115605 55 140 0.0 0.0 0.00 0.00 0.00 86 1014.2
20260901115102 55 135 0.0 0.0 0.00 0.00 0.00 86 1014.4
20260901114558 55 146 0.0 0.0 0.00 0.00 0.00 86 1014.3
20260901114057 55 142 0.0 3.0 0.00 0.00 0.00 86 1014.3
20260901113555 55 140 0.0 0.0 0.00 0.00 0.00 86 1014.0
20260901113052 55 141 0.0 0.0 0.00 0.00 0.00 86 1014.0
20260901112551 55 187 0.0 0.0 0.00 0.00 0.00 86 1013.8
20260901112046 55 185 0.0 0.0 0.00 0.00 0.00 86 1014.0
20260901111544 55 154 0.0 0.0 0.00 0.00 0.00 86 1013.9
20260901111043 55 132 0.0 0.0 0.00 0.00 0.00 85 1013.8
20260901110539 55 143 0.0 0.0 0.00 0.00 0.00 85 1013.8
20260901110034 55 165 0.0 0.0 0.00 0.00 0.00 85 1013.8
20260901105532 55 176 0.0 0.0 0.00 0.00 0.00 85 1013.8
20260901105030 55 154 0.0 0.0 0.00 0.00 0.00 85 1014.0
20260901104527 55 177 0.0 0.0 0.00 0.00 0.00 85 1013.9
20260901104022 55 164 0.0 0.0 0.00 0.00 0.00 85 1013.9
20260901103516 55 174 0.0 0.0 0.00 0.00 0.00 85 1013.8
20260901103012 56 162 0.0 0.0 0.00 0.00 0.00 85 1013.9
20260901102512 56 143 0.0 0.0 0.00 0.00 0.00 85 1014.0
20260901102007 56 129 0.0 0.0 0.00 0.00 0.00 85 1013.8
20260901101502 56 150 0.0 0.0 0.00 0.00 0.00 85 1013.9
20260901101001 56 171 0.0 0.0 0.00 0.00 0.00 84 1013.6
20260901100456 56 179 0.0 0.0 0.00 0.00 0.00 84 1013.8
20260901095955 56 145 0.0 0.0 0.00 0.00 0.00 84 1013.8
20260901095454 56 151 0.0 0.0 0.00 0.00 0.00 84 1013.6
20260901094952 56 150 0.0 0.0 0.00 0.00 0.00 84 1013.5
20260901094447 57 177 0.0 0.0 0.00 0.00 0.00 84 1013.6
20260901093946 57 119 0.0 3.0 0.00 0.00 0.00 83 1013.5
20260901093442 57 133 0.0 5.0 0.00 0.00 0.00 83 1013.6
20260901092941 57 134 0.0 0.0 0.00 0.00 0.00 83 1013.5
20260901092438 57 130 0.0 0.0 0.00 0.00 0.00 83 1013.5
20260901091933 57 139 0.0 0.0 0.00 0.00 0.00 83 1013.4
20260901091428 57 136 0.0 0.0 0.00 0.00 0.00 83 1013.5
20260901090923 57 152 0.0 0.0 0.00 0.00 0.00 83 1013.3
20260901090422 57 148 0.0 0.0 0.00 0.00 0.00 83 1013.5
20260901085918 57 157 0.0 0.0 0.00 0.00 0.00 83 1013.4
20260901085414 57 138 0.0 0.0 0.00 0.00 0.00 83 1013.4
20260901084910 57 157 0.0 0.0 0.00 0.00 0.00 83 1013.4
20260901084406 57 155 0.0 0.0 0.00 0.00 0.00 83 1013.4
20260901083901 57 154 0.0 0.0 0.00 0.00 0.00 83 1013.3
20260901083356 57 145 0.0 0.0 0.00 0.00 0.00 83 1013.5
20260901082854 57 176 0.0 0.0 0.00 0.00 0.00 83 1013.4
20260901082349 57 162 0.0 0.0 0.00 0.00 0.00 83 1013.4
20260901081844 58 183 0.0 0.0 0.00 0.00 0.00 82 1013.5
20260901081340 58 182 0.0 0.0 0.00 0.00 0.00 82 1013.5
20260901080840 58 171 0.0 0.0 0.00 0.00 0.00 82 1013.4
20260901080334 58 153 0.0 0.0 0.00 0.00 0.00 82 1013.4
20260901075828 58 137 0.0 0.0 0.00 0.00 0.00 82 1013.3
20260901075323 58 183 0.0 0.0 0.00 0.00 0.00 82 1013.0
20260901074819 58 188 0.0 0.0 0.00 0.00 0.00 82 1013.0
20260901074313 58 181 0.0 0.0 0.00 0.00 0.00 82 1012.9
20260901073808 58 189 0.0 0.0 0.00 0.00 0.00 81 1013.0
20260901073304 58 184 0.0 0.0 0.00 0.00 0.00 81 1012.9
20260901072800 58 192 0.0 0.0 0.00 0.00 0.00 80 1012.9
20260901072259 59 185 0.0 0.0 0.00 0.00 0.00 80 1012.9
20260901071755 59 186 0.0 0.0 0.00 0.00 0.00 80 1013.0
20260901071253 59 192 0.0 0.0 0.00 0.00 0.00 80 1013.2
20260901070752 59 184 0.0 0.0 0.00 0.00 0.00 79 1012.9
20260901070248 59 172 0.0 0.0 0.00 0.00 0.00 79 1013.1
20260901065747 60 150 0.0 0.0 0.00 0.00 0.00 79 1013.1
20260901065243 60 165 0.0 0.0 0.00 0.00 0.00 79 1013.1
20260901064739 60 175 0.0 0.0 0.00 0.00 0.00 79 1013.1
20260901064235 60 180 0.0 0.0 0.00 0.00 0.00 79 1013.1
20260901063732 60 182 0.0 0.0 0.00 0.00 0.00 78 1012.9
20260901063227 60 187 0.0 0.0 0.00 0.00 0.00 78 1013.0
20260901062724 60 178 0.0 0.0 0.00 0.00 0.00 77 1013.1
20260901062219 60 179 0.0 0.0 0.00 0.00 0.00 77 1012.9
20260901061715 61 176 0.0 0.0 0.00 0.00 0.00 76 1013.1
20260901061214 61 155 0.0 0.0 0.00 0.00 0.00 76 1013.1
20260901060709 61 155 0.0 0.0 0.00 0.00 0.00 75 1013.1
20260901060205 61 183 0.0 0.0 0.00 0.00 0.00 75 1013.1
20260901055700 61 176 0.0 0.0 0.00 0.00 0.00 75 1013.1
20260901055157 62 159 0.0 0.0 0.00 0.00 0.00 74 1013.1
20260901054654 62 180 0.0 0.0 0.00 0.00 0.00 74 1013.0
20260901054149 62 180 0.0 0.0 0.00 0.00 0.00 74 1013.2
20260901053645 62 175 0.0 0.0 0.00 0.00 0.00 73 1013.1
20260901053141 62 188 0.0 0.0 0.00 0.00 0.00 73 1013.2
20260901052636 62 183 0.0 0.0 0.00 0.00 0.00 72 1013.2
20260901052132 62 188 0.0 0.0 0.00 0.00 0.00 71 1013.2
20260901051631 62 166 0.0 0.0 0.00 0.00 0.00 71 1013.2
20260901051130 63 192 0.0 0.0 0.00 0.00 0.00 71 1013.4
20260901050626 63 192 0.0 0.0 0.00 0.00 0.00 70 1013.2
20260901050121 63 192 0.0 0.0 0.00 0.00 0.00 70 1013.4
20260901045615 64 191 0.0 0.0 0.00 0.00 0.00 69 1013.2
20260901045110 64 204 0.0 0.0 0.00 0.00 0.00 68 1013.1
20260901044606 64 166 0.0 0.0 0.00 0.00 0.00 68 1013.2